Climatologie pour Saint-Brevin les Pins
Jour • Résumé pour janvier 12, 2017 Système :  Métrique    Anglais   Mixte
« - 1 jour
+ 1 jour »
Jour Semaine Mois Année Personnalisé
  Maximum : Minimum : Moyenne :
Température sous abri : 10.7 °C 5.1 °C 8.4 °C
Point de rosée : 10.4 °C 1.4 °C 6.7 °C
Humidité : 98 % 76 % 90 %
Vitesse du vent : 38.6 km/h 0.0 km/h 10.4 km/h
Rafale : 62.8 km/h - -
Direction :- - West
Pression : 1022.9 hPa 1003.6 hPa -
Précipitations : 8.9 mm    
Historical Graphs
 
 
Tableau de données pour janvier 12, 2017
Heure Tempé Pt rosée Pression Vent Vitesse Rafale Humidité Taux pluie (/hr) Soleil
00:00 8.1 °C 6.4 °C 1022.6 hPa WNW 3.2 km/h 6.4 km/h 89 % 0.0 mm 0 W/m2
00:05 8.1 °C 6.4 °C 1022.6 hPa Calm   6.4 km/h 89 % 0.0 mm 0 W/m2
00:10 8.1 °C 6.4 °C 1022.6 hPa WNW 3.2 km/h 6.4 km/h 89 % 0.0 mm 0 W/m2
00:15 8.1 °C 6.4 °C 1022.9 hPa WNW 1.6 km/h 8.0 km/h 89 % 0.0 mm 0 W/m2
00:20 8.2 °C 6.6 °C 1022.6 hPa WNW 9.7 km/h 9.7 km/h 90 % 0.0 mm 0 W/m2
00:25 8.2 °C 6.7 °C 1022.6 hPa WNW 6.4 km/h 9.7 km/h 90 % 0.0 mm 0 W/m2
00:30 8.3 °C 6.7 °C 1022.6 hPa WNW 1.6 km/h 11.3 km/h 90 % 0.0 mm 0 W/m2
00:35 8.3 °C 6.8 °C 1022.9 hPa WNW 4.8 km/h 11.3 km/h 90 % 0.0 mm 0 W/m2
00:40 8.4 °C 6.8 °C 1022.9 hPa WNW 4.8 km/h 9.7 km/h 90 % 0.0 mm 0 W/m2
00:45 8.4 °C 6.9 °C 1022.9 hPa WNW 6.4 km/h 12.9 km/h 90 % 0.0 mm 0 W/m2
00:50 8.5 °C 7.0 °C 1022.6 hPa WNW 8.0 km/h 12.9 km/h 90 % 0.0 mm 0 W/m2
00:55 8.6 °C 7.0 °C 1022.6 hPa WNW 6.4 km/h 11.3 km/h 90 % 0.0 mm 0 W/m2
01:00 8.6 °C 7.1 °C 1022.6 hPa NW 6.4 km/h 12.9 km/h 90 % 0.0 mm 0 W/m2
01:05 8.6 °C 6.9 °C 1022.6 hPa WNW 3.2 km/h 12.9 km/h 89 % 0.0 mm 0 W/m2
01:10 8.7 °C 7.0 °C 1022.2 hPa WNW 4.8 km/h 11.3 km/h 89 % 0.0 mm 0 W/m2
01:15 8.7 °C 7.0 °C 1022.6 hPa WNW 6.4 km/h 11.3 km/h 89 % 0.0 mm 0 W/m2
01:20 8.7 °C 7.0 °C 1022.2 hPa WNW 3.2 km/h 9.7 km/h 89 % 0.0 mm 0 W/m2
01:30 8.7 °C 6.8 °C 1022.6 hPa WNW 4.8 km/h 11.3 km/h 88 % 0.0 mm 0 W/m2
01:35 8.7 °C 6.8 °C 1022.6 hPa WNW 6.4 km/h 11.3 km/h 88 % 0.0 mm 0 W/m2
01:40 8.7 °C 6.8 °C 1022.6 hPa NW 1.6 km/h 11.3 km/h 88 % 0.0 mm 0 W/m2
01:45 8.7 °C 6.8 °C 1022.6 hPa WNW 3.2 km/h 11.3 km/h 88 % 0.0 mm 0 W/m2
01:50 8.7 °C 6.8 °C 1022.6 hPa WNW 1.6 km/h 6.4 km/h 88 % 0.0 mm 0 W/m2
01:55 8.7 °C 6.8 °C 1022.6 hPa Calm   6.4 km/h 88 % 0.0 mm 0 W/m2
02:00 8.7 °C 6.8 °C 1022.2 hPa WNW 1.6 km/h 6.4 km/h 88 % 0.0 mm 0 W/m2
02:05 8.7 °C 6.8 °C 1022.2 hPa WNW 3.2 km/h 4.8 km/h 88 % 0.0 mm 0 W/m2
02:15 8.6 °C 6.7 °C 1022.2 hPa WNW 3.2 km/h 6.4 km/h 88 % 0.0 mm 0 W/m2
02:20 8.6 °C 6.7 °C 1022.2 hPa Calm   4.8 km/h 88 % 0.0 mm 0 W/m2
02:25 8.6 °C 6.7 °C 1022.2 hPa Calm   4.8 km/h 88 % 0.0 mm 0 W/m2
02:30 8.6 °C 6.7 °C 1022.2 hPa WNW 1.6 km/h 4.8 km/h 88 % 0.0 mm 0 W/m2
02:35 8.6 °C 6.7 °C 1022.2 hPa WNW 3.2 km/h 4.8 km/h 88 % 0.0 mm 0 W/m2
02:40 8.6 °C 6.7 °C 1022.2 hPa WNW 4.8 km/h 4.8 km/h 88 % 0.0 mm 0 W/m2
02:45 8.6 °C 6.7 °C 1022.2 hPa WNW 3.2 km/h 4.8 km/h 88 % 0.0 mm 0 W/m2
02:55 8.5 °C 6.8 °C 1021.9 hPa West 6.4 km/h 6.4 km/h 89 % 0.0 mm 0 W/m2
03:00 8.5 °C 6.8 °C 1021.9 hPa WSW 4.8 km/h 9.7 km/h 89 % 0.0 mm 0 W/m2
03:05 8.6 °C 6.8 °C 1022.2 hPa West 1.6 km/h 9.7 km/h 89 % 0.0 mm 0 W/m2
03:10 8.6 °C 7.0 °C 1022.2 hPa West 3.2 km/h 9.7 km/h 90 % 0.0 mm 0 W/m2
03:15 8.6 °C 7.1 °C 1021.9 hPa West 6.4 km/h 6.4 km/h 90 % 0.0 mm 0 W/m2
03:20 8.7 °C 7.1 °C 1021.9 hPa Calm   6.4 km/h 90 % 0.0 mm 0 W/m2
03:25 8.7 °C 7.2 °C 1021.9 hPa West 4.8 km/h 6.4 km/h 90 % 0.0 mm 0 W/m2
03:30 8.8 °C 7.2 °C 1021.6 hPa Calm   6.4 km/h 90 % 0.0 mm 0 W/m2
03:35 8.8 °C 7.4 °C 1021.6 hPa Calm   6.4 km/h 91 % 0.0 mm 0 W/m2
03:40 8.8 °C 7.4 °C 1021.6 hPa Calm   4.8 km/h 91 % 0.0 mm 0 W/m2
03:45 8.8 °C 7.4 °C 1021.6 hPa Calm   4.8 km/h 91 % 0.0 mm 0 W/m2
03:50 8.8 °C 7.4 °C 1021.6 hPa West 3.2 km/h 4.8 km/h 91 % 0.0 mm 0 W/m2
03:55 8.8 °C 7.4 °C 1021.2 hPa WSW 3.2 km/h 6.4 km/h 91 % 0.0 mm 0 W/m2
04:00 8.8 °C 7.4 °C 1021.2 hPa Calm   6.4 km/h 91 % 0.0 mm 0 W/m2
04:05 8.9 °C 7.5 °C 1020.9 hPa WSW 3.2 km/h 4.8 km/h 91 % 0.0 mm 0 W/m2
04:10 8.9 °C 7.5 °C 1020.9 hPa Calm   4.8 km/h 91 % 0.0 mm 0 W/m2
04:15 8.9 °C 7.5 °C 1020.9 hPa Calm   3.2 km/h 91 % 0.0 mm 0 W/m2
04:20 8.8 °C 7.4 °C 1020.9 hPa Calm   1.6 km/h 91 % 0.0 mm 0 W/m2
04:25 8.8 °C 7.4 °C 1020.9 hPa Calm   1.6 km/h 91 % 0.0 mm 0 W/m2
04:30 8.8 °C 7.4 °C 1020.9 hPa Calm   4.8 km/h 91 % 0.0 mm 0 W/m2
04:35 8.8 °C 7.4 °C 1020.9 hPa WSW 4.8 km/h 4.8 km/h 91 % 0.0 mm 0 W/m2
04:40 8.8 °C 7.4 °C 1020.5 hPa Calm   4.8 km/h 91 % 0.0 mm 0 W/m2
04:45 8.8 °C 7.4 °C 1020.5 hPa WSW 1.6 km/h 4.8 km/h 91 % 0.0 mm 0 W/m2
04:50 8.8 °C 7.4 °C 1020.5 hPa Calm   4.8 km/h 91 % 0.0 mm 0 W/m2
04:55 8.8 °C 7.6 °C 1020.5 hPa WSW 1.6 km/h 4.8 km/h 92 % 0.0 mm 0 W/m2
05:00 8.8 °C 7.6 °C 1020.5 hPa WSW 3.2 km/h 4.8 km/h 92 % 0.0 mm 0 W/m2
05:05 8.8 °C 7.6 °C 1020.5 hPa Calm   6.4 km/h 92 % 0.0 mm 0 W/m2
05:10 8.8 °C 7.6 °C 1020.5 hPa WSW 3.2 km/h 6.4 km/h 92 % 0.0 mm 0 W/m2
05:15 8.8 °C 7.6 °C 1020.5 hPa Calm   4.8 km/h 92 % 0.0 mm 0 W/m2
05:20 8.8 °C 7.6 °C 1020.2 hPa Calm   4.8 km/h 92 % 0.0 mm 0 W/m2
05:25 8.8 °C 7.6 °C 1020.2 hPa WSW 1.6 km/h 4.8 km/h 92 % 0.0 mm 0 W/m2
05:30 8.8 °C 7.6 °C 1020.2 hPa WSW 3.2 km/h 4.8 km/h 92 % 0.0 mm 0 W/m2
05:35 8.8 °C 7.5 °C 1020.2 hPa WSW 3.2 km/h 4.8 km/h 92 % 0.0 mm 0 W/m2
05:40 8.8 °C 7.5 °C 1020.2 hPa WSW 4.8 km/h 6.4 km/h 92 % 0.0 mm 0 W/m2
05:45 8.8 °C 7.7 °C 1020.2 hPa SW 1.6 km/h 9.7 km/h 93 % 0.0 mm 0 W/m2
05:50 8.8 °C 7.5 °C 1019.9 hPa SW 1.6 km/h 9.7 km/h 92 % 0.0 mm 0 W/m2
05:55 8.8 °C 7.5 °C 1019.9 hPa SW 4.8 km/h 6.4 km/h 92 % 0.0 mm 0 W/m2
06:00 8.8 °C 7.7 °C 1019.9 hPa SW 1.6 km/h 6.4 km/h 93 % 0.0 mm 0 W/m2
06:05 8.8 °C 7.7 °C 1019.9 hPa SW 6.4 km/h 6.4 km/h 93 % 0.0 mm 0 W/m2
06:10 8.8 °C 7.7 °C 1019.9 hPa WSW 6.4 km/h 6.4 km/h 93 % 0.0 mm 0 W/m2
06:15 8.8 °C 7.7 °C 1019.5 hPa WSW 1.6 km/h 6.4 km/h 93 % 0.0 mm 0 W/m2
06:20 8.8 °C 7.8 °C 1019.5 hPa WSW 4.8 km/h 6.4 km/h 93 % 0.0 mm 0 W/m2
06:25 8.8 °C 7.8 °C 1019.9 hPa WSW 4.8 km/h 8.0 km/h 93 % 0.0 mm 0 W/m2
06:30 8.8 °C 7.8 °C 1019.5 hPa WSW 3.2 km/h 11.3 km/h 93 % 0.0 mm 0 W/m2
06:35 8.8 °C 7.8 °C 1019.5 hPa WSW 3.2 km/h 11.3 km/h 93 % 0.0 mm 0 W/m2
06:40 8.8 °C 7.8 °C 1019.5 hPa WSW 1.6 km/h 8.0 km/h 93 % 0.0 mm 0 W/m2
06:45 8.8 °C 7.8 °C 1019.5 hPa West 3.2 km/h 9.7 km/h 93 % 0.0 mm 0 W/m2
06:50 8.8 °C 7.8 °C 1019.5 hPa West 3.2 km/h 9.7 km/h 93 % 0.0 mm 0 W/m2
06:55 8.8 °C 7.8 °C 1019.2 hPa WSW 3.2 km/h 8.0 km/h 93 % 0.0 mm 0 W/m2
07:00 8.8 °C 7.9 °C 1019.2 hPa WSW 6.4 km/h 9.7 km/h 94 % 0.0 mm 0 W/m2
07:05 8.9 °C 8.0 °C 1019.2 hPa WSW 4.8 km/h 11.3 km/h 94 % 0.0 mm 0 W/m2
07:10 8.9 °C 8.0 °C 1018.8 hPa West 3.2 km/h 11.3 km/h 94 % 0.0 mm 0 W/m2
07:15 8.9 °C 7.8 °C 1018.8 hPa SW 1.6 km/h 11.3 km/h 93 % 0.0 mm 0 W/m2
07:20 8.9 °C 8.0 °C 1018.8 hPa SW 6.4 km/h 11.3 km/h 94 % 0.0 mm 0 W/m2
07:25 8.9 °C 7.9 °C 1018.8 hPa WSW 6.4 km/h 12.9 km/h 93 % 0.0 mm 0 W/m2
07:30 8.9 °C 7.9 °C 1018.8 hPa West 8.0 km/h 14.5 km/h 93 % 0.0 mm 0 W/m2
07:35 8.9 °C 7.9 °C 1018.8 hPa SW 1.6 km/h 14.5 km/h 93 % 0.0 mm 0 W/m2
07:40 8.9 °C 7.8 °C 1018.5 hPa SW 3.2 km/h 9.7 km/h 93 % 0.0 mm 0 W/m2
07:45 8.9 °C 7.8 °C 1018.5 hPa WSW 4.8 km/h 6.4 km/h 93 % 0.0 mm 0 W/m2
07:50 8.8 °C 7.8 °C 1018.5 hPa WSW 3.2 km/h 6.4 km/h 93 % 0.0 mm 0 W/m2
07:55 8.8 °C 7.8 °C 1018.5 hPa SW 4.8 km/h 8.0 km/h 93 % 0.0 mm 0 W/m2
08:00 8.8 °C 7.8 °C 1018.5 hPa SW 3.2 km/h 8.0 km/h 93 % 0.0 mm 0 W/m2
08:05 8.9 °C 7.8 °C 1018.2 hPa Calm   6.4 km/h 93 % 0.0 mm 0 W/m2
08:10 8.9 °C 7.8 °C 1018.2 hPa WSW 3.2 km/h 8.0 km/h 93 % 0.0 mm 0 W/m2
08:15 8.9 °C 7.8 °C 1018.2 hPa SW 4.8 km/h 8.0 km/h 93 % 0.0 mm 0 W/m2
08:20 8.9 °C 7.8 °C 1018.2 hPa SW 4.8 km/h 9.7 km/h 93 % 0.0 mm 0 W/m2
08:25 8.8 °C 7.8 °C 1018.2 hPa WSW 3.2 km/h 9.7 km/h 93 % 0.0 mm 0 W/m2
08:30 8.8 °C 7.6 °C 1018.2 hPa WSW 9.7 km/h 11.3 km/h 92 % 0.0 mm 0 W/m2
08:35 8.8 °C 7.5 °C 1017.8 hPa Calm   11.3 km/h 92 % 0.0 mm 0 W/m2
08:40 8.8 °C 7.5 °C 1017.8 hPa WSW 8.0 km/h 9.7 km/h 92 % 0.0 mm 0 W/m2
08:45 8.8 °C 7.5 °C 1017.8 hPa WSW 3.2 km/h 9.7 km/h 92 % 0.0 mm 0 W/m2
08:50 8.8 °C 7.4 °C 1017.8 hPa WSW 8.0 km/h 9.7 km/h 91 % 0.0 mm 0 W/m2
08:55 8.8 °C 7.4 °C 1017.8 hPa Calm   12.9 km/h 91 % 0.0 mm 0 W/m2
09:00 8.8 °C 7.4 °C 1017.8 hPa Calm   12.9 km/h 91 % 0.0 mm 0 W/m2
09:05 8.8 °C 7.4 °C 1017.8 hPa WSW 4.8 km/h 8.0 km/h 91 % 0.0 mm 0 W/m2
09:15 8.8 °C 7.4 °C 1017.8 hPa WSW 3.2 km/h 8.0 km/h 91 % 0.0 mm 0 W/m2
09:20 8.8 °C 7.4 °C 1017.5 hPa WSW 1.6 km/h 8.0 km/h 91 % 0.0 mm 0 W/m2
09:25 8.8 °C 7.4 °C 1017.5 hPa WSW 1.6 km/h 8.0 km/h 91 % 0.0 mm 5 W/m2
09:30 8.9 °C 7.5 °C 1017.5 hPa Calm   6.4 km/h 91 % 0.0 mm 7 W/m2
09:35 8.9 °C 7.7 °C 1017.2 hPa SSW 1.6 km/h 6.4 km/h 92 % 0.0 mm 14 W/m2
09:40 8.9 °C 7.7 °C 1017.2 hPa South 1.6 km/h 9.7 km/h 92 % 0.0 mm 18 W/m2
09:45 8.9 °C 7.7 °C 1017.2 hPa South 1.6 km/h 9.7 km/h 92 % 0.0 mm 21 W/m2
09:50 8.9 °C 7.7 °C 1017.2 hPa SSW 1.6 km/h 6.4 km/h 92 % 0.0 mm 30 W/m2
09:55 8.9 °C 7.7 °C 1017.2 hPa SSW 4.8 km/h 8.0 km/h 92 % 0.0 mm 30 W/m2
10:00 8.9 °C 7.7 °C 1017.2 hPa SSW 6.4 km/h 8.0 km/h 92 % 0.0 mm 26 W/m2
10:10 8.9 °C 7.9 °C 1016.8 hPa SSW 4.8 km/h 9.7 km/h 93 % 0.0 mm 35 W/m2
10:15 8.9 °C 7.9 °C 1016.8 hPa SSW 8.0 km/h 9.7 km/h 93 % 0.0 mm 21 W/m2
10:20 8.9 °C 7.9 °C 1016.8 hPa SSW 8.0 km/h 11.3 km/h 93 % 0.0 mm 28 W/m2
10:25 8.9 °C 7.9 °C 1016.8 hPa SSW 8.0 km/h 11.3 km/h 93 % 0.0 mm 28 W/m2
10:30 8.9 °C 7.9 °C 1016.8 hPa SSW 8.0 km/h 12.9 km/h 93 % 0.3 mm 30 W/m2
10:35 8.9 °C 7.9 °C 1016.5 hPa SSW 4.8 km/h 12.9 km/h 93 % 0.3 mm 32 W/m2
10:40 8.9 °C 7.9 °C 1016.5 hPa SSW 4.8 km/h 12.9 km/h 93 % 0.5 mm 33 W/m2
10:45 8.9 °C 7.8 °C 1016.1 hPa South 4.8 km/h 12.9 km/h 93 % 0.5 mm 37 W/m2
10:50 8.9 °C 7.8 °C 1016.1 hPa SW 9.7 km/h 11.3 km/h 93 % 0.5 mm 40 W/m2
10:55 8.9 °C 7.8 °C 1015.8 hPa SSW 8.0 km/h 14.5 km/h 93 % 0.5 mm 60 W/m2
11:00 8.9 °C 8.0 °C 1015.8 hPa SSW 8.0 km/h 14.5 km/h 94 % 0.5 mm 74 W/m2
11:05 8.9 °C 8.0 °C 1015.8 hPa SW 3.2 km/h 11.3 km/h 94 % 0.5 mm 83 W/m2
11:10 8.9 °C 8.0 °C 1015.5 hPa SSW 6.4 km/h 12.9 km/h 94 % 0.5 mm 83 W/m2
11:15 9.0 °C 8.1 °C 1015.5 hPa South 8.0 km/h 12.9 km/h 94 % 0.5 mm 65 W/m2
11:20 9.0 °C 8.1 °C 1015.5 hPa South 14.5 km/h 14.5 km/h 94 % 0.5 mm 72 W/m2
11:25 9.0 °C 8.1 °C 1015.1 hPa SSW 12.9 km/h 16.1 km/h 94 % 0.5 mm 35 W/m2
11:30 9.1 °C 8.1 °C 1014.8 hPa SSE 6.4 km/h 16.1 km/h 94 % 0.5 mm 60 W/m2
11:35 9.1 °C 8.1 °C 1014.8 hPa SSW 8.0 km/h 14.5 km/h 94 % 0.5 mm 67 W/m2
11:40 9.1 °C 8.1 °C 1014.8 hPa South 8.0 km/h 14.5 km/h 94 % 0.3 mm 60 W/m2
11:45 9.1 °C 8.4 °C 1014.8 hPa SW 6.4 km/h 17.7 km/h 95 % 0.3 mm 53 W/m2
11:50 9.2 °C 8.4 °C 1014.4 hPa SW 8.0 km/h 17.7 km/h 95 % 0.3 mm 74 W/m2
11:55 9.2 °C 8.4 °C 1014.4 hPa South 4.8 km/h 16.1 km/h 95 % 0.3 mm 88 W/m2
12:00 9.2 °C 8.5 °C 1014.1 hPa SSW 8.0 km/h 16.1 km/h 95 % 0.3 mm 116 W/m2
12:05 9.4 °C 8.6 °C 1013.8 hPa SSE 9.7 km/h 14.5 km/h 95 % 0.3 mm 149 W/m2
12:10 9.4 °C 8.7 °C 1013.8 hPa SSW 8.0 km/h 12.9 km/h 95 % 0.3 mm 132 W/m2
12:15 9.5 °C 8.7 °C 1013.8 hPa SW 9.7 km/h 16.1 km/h 95 % 0.3 mm 81 W/m2
12:20 9.5 °C 8.9 °C 1013.4 hPa SW 3.2 km/h 19.3 km/h 96 % 0.3 mm 60 W/m2
12:25 9.5 °C 8.9 °C 1013.1 hPa South 4.8 km/h 19.3 km/h 96 % 0.3 mm 81 W/m2
12:30 9.5 °C 8.9 °C 1013.1 hPa SW 9.7 km/h 19.3 km/h 96 % 0.5 mm 79 W/m2
12:35 9.6 °C 8.9 °C 1012.8 hPa South 4.8 km/h 20.9 km/h 96 % 0.5 mm 72 W/m2
12:40 9.5 °C 8.9 °C 1012.8 hPa South 16.1 km/h 20.9 km/h 96 % 0.5 mm 76 W/m2
12:45 9.4 °C 8.8 °C 1012.4 hPa SSW 9.7 km/h 19.3 km/h 96 % 0.5 mm 84 W/m2
12:50 9.4 °C 8.8 °C 1012.1 hPa SW 16.1 km/h 24.1 km/h 96 % 0.5 mm 72 W/m2
12:55 9.5 °C 8.9 °C 1012.1 hPa South 6.4 km/h 24.1 km/h 96 % 0.3 mm 58 W/m2
13:00 9.5 °C 8.9 °C 1011.7 hPa SW 9.7 km/h 20.9 km/h 96 % 0.3 mm 49 W/m2
13:05 9.5 °C 8.9 °C 1011.7 hPa SSW 9.7 km/h 20.9 km/h 96 % 0.3 mm 46 W/m2
13:10 9.5 °C 8.9 °C 1011.4 hPa SSW 12.9 km/h 24.1 km/h 96 % 0.3 mm 69 W/m2
13:15 9.6 °C 8.9 °C 1011.1 hPa South 9.7 km/h 24.1 km/h 96 % 0.5 mm 56 W/m2
13:20 9.6 °C 8.9 °C 1010.7 hPa South 11.3 km/h 24.1 km/h 96 % 0.5 mm 54 W/m2
13:25 9.6 °C 8.9 °C 1010.7 hPa WSW 16.1 km/h 27.4 km/h 96 % 0.5 mm 72 W/m2
13:30 9.6 °C 8.9 °C 1010.0 hPa SSW 20.9 km/h 27.4 km/h 96 % 0.5 mm 58 W/m2
13:35 9.6 °C 9.0 °C 1010.0 hPa SSW 17.7 km/h 20.9 km/h 96 % 0.5 mm 51 W/m2
13:40 9.6 °C 9.0 °C 1009.7 hPa SSW 9.7 km/h 24.1 km/h 96 % 0.5 mm 74 W/m2
13:45 9.7 °C 9.1 °C 1009.7 hPa SW 11.3 km/h 24.1 km/h 96 % 0.5 mm 67 W/m2
13:50 9.7 °C 9.1 °C 1009.4 hPa WSW 4.8 km/h 24.1 km/h 96 % 0.5 mm 23 W/m2
13:55 9.7 °C 9.1 °C 1009.4 hPa South 8.0 km/h 30.6 km/h 96 % 0.5 mm 25 W/m2
14:00 9.6 °C 9.0 °C 1009.0 hPa SSW 11.3 km/h 30.6 km/h 96 % 0.5 mm 42 W/m2
14:05 9.7 °C 9.1 °C 1008.7 hPa SSW 19.3 km/h 27.4 km/h 96 % 0.8 mm 42 W/m2
14:10 9.7 °C 9.1 °C 1008.7 hPa SSW 12.9 km/h 27.4 km/h 96 % 0.8 mm 21 W/m2
14:15 9.7 °C 9.1 °C 1008.0 hPa South 16.1 km/h 27.4 km/h 96 % 0.5 mm 32 W/m2
14:20 9.7 °C 9.1 °C 1008.0 hPa SW 8.0 km/h 27.4 km/h 96 % 0.5 mm 23 W/m2
14:25 9.7 °C 9.1 °C 1008.0 hPa West 6.4 km/h 27.4 km/h 96 % 0.5 mm 23 W/m2
14:30 9.7 °C 9.1 °C 1007.7 hPa SSW 12.9 km/h 22.5 km/h 96 % 0.5 mm 26 W/m2
15:10 9.8 °C 9.3 °C 1006.0 hPa South 3.2 km/h 30.6 km/h 97 % 2.0 mm 23 W/m2
15:15 9.8 °C 9.4 °C 1005.6 hPa WSW 16.1 km/h 32.2 km/h 97 % 2.3 mm 25 W/m2
15:20 9.9 °C 9.5 °C 1005.6 hPa SW 8.0 km/h 32.2 km/h 97 % 2.3 mm 19 W/m2
15:25 10.0 °C 9.5 °C 1005.3 hPa West 14.5 km/h 32.2 km/h 97 % 2.3 mm 37 W/m2
15:30 10.1 °C 9.6 °C 1005.0 hPa West 24.1 km/h 29.0 km/h 97 % 2.8 mm 21 W/m2
15:35 10.2 °C 9.7 °C 1004.6 hPa SW 9.7 km/h 29.0 km/h 97 % 2.8 mm 63 W/m2
15:40 10.2 °C 9.8 °C 1004.6 hPa SW 8.0 km/h 32.2 km/h 97 % 2.8 mm 58 W/m2
15:45 10.3 °C 9.8 °C 1004.3 hPa WSW 19.3 km/h 33.8 km/h 97 % 2.3 mm 40 W/m2
15:50 10.3 °C 9.9 °C 1003.9 hPa South 9.7 km/h 35.4 km/h 97 % 2.3 mm 40 W/m2
15:55 10.4 °C 10.0 °C 1003.9 hPa SW 9.7 km/h 35.4 km/h 97 % 1.8 mm 23 W/m2
16:00 10.5 °C 10.0 °C 1003.9 hPa West 19.3 km/h 35.4 km/h 97 % 1.8 mm 12 W/m2
16:05 10.5 °C 10.0 °C 1003.6 hPa West 9.7 km/h 35.4 km/h 97 % 2.0 mm 7 W/m2
16:10 10.6 °C 10.3 °C 1003.6 hPa West 16.1 km/h 41.8 km/h 98 % 2.3 mm 23 W/m2
16:15 10.7 °C 10.4 °C 1003.6 hPa West 20.9 km/h 41.8 km/h 98 % 3.0 mm 9 W/m2
16:20 10.7 °C 10.4 °C 1003.6 hPa West 11.3 km/h 46.7 km/h 98 % 4.1 mm 65 W/m2
16:25 10.7 °C 10.3 °C 1003.6 hPa WNW 38.6 km/h 56.3 km/h 97 % 4.3 mm 114 W/m2
16:30 10.7 °C 10.2 °C 1003.6 hPa WNW 29.0 km/h 56.3 km/h 97 % 3.8 mm 86 W/m2
16:40 9.9 °C 8.9 °C 1003.9 hPa WNW 22.5 km/h 61.1 km/h 93 % 3.8 mm 47 W/m2
16:45 9.8 °C 8.5 °C 1004.3 hPa WNW 11.3 km/h 59.5 km/h 92 % 3.8 mm 42 W/m2
16:50 9.7 °C 8.3 °C 1003.9 hPa WNW 22.5 km/h 51.5 km/h 91 % 3.6 mm 35 W/m2
16:55 9.6 °C 8.0 °C 1003.9 hPa WNW 27.4 km/h 57.9 km/h 90 % 3.6 mm 21 W/m2
17:00 9.4 °C 7.7 °C 1004.6 hPa WNW 22.5 km/h 57.9 km/h 89 % 3.3 mm 40 W/m2
17:05 9.4 °C 7.7 °C 1004.3 hPa West 35.4 km/h 62.8 km/h 89 % 3.0 mm 21 W/m2
17:10 9.3 °C 7.4 °C 1004.3 hPa WNW 20.9 km/h 62.8 km/h 88 % 2.3 mm 12 W/m2
17:15 9.2 °C 7.3 °C 1004.6 hPa NNW 17.7 km/h 57.9 km/h 88 % 1.5 mm 12 W/m2
17:25 9.2 °C 7.3 °C 1005.0 hPa NW 16.1 km/h 53.1 km/h 88 % 0.5 mm 9 W/m2
17:30 8.8 °C 7.0 °C 1005.0 hPa NW 33.8 km/h 56.3 km/h 88 % 0.5 mm 9 W/m2
17:35 8.6 °C 6.7 °C 1005.0 hPa WNW 16.1 km/h 56.3 km/h 88 % 0.5 mm 5 W/m2
17:40 8.4 °C 6.6 °C 1005.0 hPa WNW 22.5 km/h 53.1 km/h 88 % 0.5 mm 0 W/m2
17:45 8.4 °C 6.6 °C 1005.3 hPa WNW 17.7 km/h 54.7 km/h 88 % 0.5 mm 0 W/m2
17:50 8.3 °C 6.6 °C 1005.3 hPa NW 25.7 km/h 54.7 km/h 89 % 0.5 mm 0 W/m2
17:55 8.3 °C 6.6 °C 1005.3 hPa NW 24.1 km/h 46.7 km/h 89 % 0.5 mm 0 W/m2
18:00 8.3 °C 6.6 °C 1005.6 hPa West 32.2 km/h 46.7 km/h 89 % 0.5 mm 0 W/m2
18:05 8.1 °C 6.4 °C 1005.6 hPa WNW 38.6 km/h 48.3 km/h 89 % 0.5 mm 0 W/m2
18:10 8.1 °C 6.5 °C 1005.6 hPa WNW 16.1 km/h 48.3 km/h 90 % 0.5 mm 0 W/m2
18:15 7.9 °C 6.2 °C 1006.0 hPa WNW 24.1 km/h 59.5 km/h 89 % 0.5 mm 0 W/m2
18:20 7.9 °C 6.0 °C 1006.0 hPa NW 16.1 km/h 59.5 km/h 88 % 0.5 mm 0 W/m2
18:25 7.8 °C 5.9 °C 1006.0 hPa NW 33.8 km/h 53.1 km/h 88 % 0.3 mm 0 W/m2
18:30 7.7 °C 5.9 °C 1006.3 hPa WNW 25.7 km/h 51.5 km/h 88 % 0.3 mm 0 W/m2
18:35 7.7 °C 5.8 °C 1006.3 hPa NW 27.4 km/h 46.7 km/h 88 % 0.3 mm 0 W/m2
18:40 7.6 °C 5.7 °C 1006.3 hPa NW 20.9 km/h 46.7 km/h 88 % 0.3 mm 0 W/m2
18:45 7.5 °C 5.6 °C 1006.7 hPa NNW 22.5 km/h 41.8 km/h 88 % 0.3 mm 0 W/m2
18:50 7.4 °C 5.4 °C 1006.7 hPa NW 19.3 km/h 41.8 km/h 87 % 0.3 mm 0 W/m2
18:55 7.3 °C 5.3 °C 1007.0 hPa NW 29.0 km/h 46.7 km/h 87 % 0.3 mm 0 W/m2
19:00 7.3 °C 5.1 °C 1007.0 hPa WNW 19.3 km/h 46.7 km/h 86 % 0.0 mm 0 W/m2
19:05 7.3 °C 5.1 °C 1007.0 hPa WNW 22.5 km/h 46.7 km/h 86 % 0.0 mm 0 W/m2
19:10 7.3 °C 5.1 °C 1007.0 hPa NW 16.1 km/h 46.7 km/h 86 % 0.0 mm 0 W/m2
19:15 7.3 °C 4.9 °C 1007.3 hPa NW 19.3 km/h 37.0 km/h 85 % 0.0 mm 0 W/m2
19:20 7.3 °C 4.8 °C 1007.3 hPa WNW 37.0 km/h 53.1 km/h 84 % 0.0 mm 0 W/m2
19:25 7.3 °C 4.2 °C 1007.3 hPa NNW 20.9 km/h 53.1 km/h 81 % 0.0 mm 0 W/m2
19:30 7.3 °C 4.1 °C 1007.3 hPa WNW 14.5 km/h 43.4 km/h 80 % 0.0 mm 0 W/m2
19:35 7.3 °C 4.1 °C 1007.3 hPa NW 16.1 km/h 43.4 km/h 80 % 0.0 mm 0 W/m2
19:40 7.3 °C 3.9 °C 1007.7 hPa NW 30.6 km/h 43.4 km/h 79 % 0.0 mm 0 W/m2
19:45 7.3 °C 3.9 °C 1007.7 hPa WNW 20.9 km/h 45.1 km/h 79 % 0.0 mm 0 W/m2
19:50 7.2 °C 3.8 °C 1007.7 hPa NW 25.7 km/h 45.1 km/h 79 % 0.0 mm 0 W/m2
19:55 7.3 °C 3.7 °C 1007.7 hPa WNW 16.1 km/h 41.8 km/h 78 % 0.0 mm 0 W/m2
20:00 7.2 °C 3.8 °C 1007.7 hPa West 17.7 km/h 41.8 km/h 79 % 0.0 mm 0 W/m2
20:05 7.3 °C 3.9 °C 1008.0 hPa WNW 30.6 km/h 46.7 km/h 79 % 0.0 mm 0 W/m2
20:10 7.3 °C 4.1 °C 1008.4 hPa WNW 38.6 km/h 57.9 km/h 80 % 0.0 mm 0 W/m2
20:15 7.0 °C 3.6 °C 1008.0 hPa WNW 12.9 km/h 57.9 km/h 79 % 0.0 mm 0 W/m2
20:20 6.8 °C 3.2 °C 1008.4 hPa NNW 17.7 km/h 48.3 km/h 78 % 0.0 mm 0 W/m2
20:25 6.6 °C 3.0 °C 1008.4 hPa NW 20.9 km/h 48.3 km/h 78 % 0.0 mm 0 W/m2
20:30 6.6 °C 3.2 °C 1008.4 hPa WNW 17.7 km/h 41.8 km/h 79 % 0.0 mm 0 W/m2
20:35 6.5 °C 3.3 °C 1008.4 hPa NW 27.4 km/h 41.8 km/h 80 % 0.0 mm 0 W/m2
20:40 6.5 °C 3.1 °C 1008.4 hPa WNW 29.0 km/h 43.4 km/h 79 % 0.0 mm 0 W/m2
20:45 6.6 °C 3.0 °C 1008.7 hPa NNW 19.3 km/h 54.7 km/h 78 % 0.0 mm 0 W/m2
20:50 6.7 °C 2.9 °C 1008.7 hPa NW 12.9 km/h 54.7 km/h 77 % 0.0 mm 0 W/m2
20:55 6.6 °C 2.7 °C 1008.7 hPa NNW 27.4 km/h 41.8 km/h 76 % 0.0 mm 0 W/m2
21:00 6.6 °C 2.8 °C 1009.0 hPa WNW 9.7 km/h 43.4 km/h 77 % 0.0 mm 0 W/m2
21:05 6.4 °C 2.9 °C 1009.0 hPa NNW 14.5 km/h 43.4 km/h 78 % 0.0 mm 0 W/m2
21:10 6.3 °C 2.8 °C 1009.0 hPa WNW 11.3 km/h 40.2 km/h 78 % 0.0 mm 0 W/m2
21:15 6.3 °C 2.9 °C 1009.0 hPa NNW 11.3 km/h 40.2 km/h 79 % 0.0 mm 0 W/m2
21:20 6.3 °C 2.9 °C 1009.4 hPa WNW 29.0 km/h 45.1 km/h 79 % 0.0 mm 0 W/m2
21:25 6.2 °C 2.8 °C 1009.4 hPa WNW 8.0 km/h 45.1 km/h 79 % 0.0 mm 0 W/m2
21:30 6.2 °C 2.6 °C 1009.4 hPa NNW 22.5 km/h 41.8 km/h 78 % 0.0 mm 0 W/m2
21:35 6.1 °C 2.4 °C 1009.7 hPa NW 25.7 km/h 37.0 km/h 77 % 0.0 mm 0 W/m2
21:40 6.1 °C 2.1 °C 1009.7 hPa NNW 12.9 km/h 40.2 km/h 76 % 0.0 mm 0 W/m2
21:45 6.0 °C 2.1 °C 1010.0 hPa WNW 19.3 km/h 40.2 km/h 76 % 0.0 mm 0 W/m2
21:50 5.9 °C 2.2 °C 1010.0 hPa WNW 24.1 km/h 40.2 km/h 77 % 0.0 mm 0 W/m2
21:55 5.8 °C 2.1 °C 1010.4 hPa NW 19.3 km/h 35.4 km/h 77 % 0.0 mm 0 W/m2
22:00 5.8 °C 2.1 °C 1010.4 hPa NW 16.1 km/h 35.4 km/h 77 % 0.0 mm 0 W/m2
22:05 5.7 °C 1.9 °C 1010.4 hPa NW 20.9 km/h 33.8 km/h 77 % 0.0 mm 0 W/m2
22:10 5.6 °C 1.9 °C 1010.4 hPa NW 17.7 km/h 37.0 km/h 77 % 0.0 mm 0 W/m2
22:15 5.5 °C 1.8 °C 1010.4 hPa NNW 14.5 km/h 37.0 km/h 77 % 0.0 mm 0 W/m2
22:20 5.4 °C 1.9 °C 1010.4 hPa NW 12.9 km/h 30.6 km/h 78 % 0.0 mm 0 W/m2
22:25 5.4 °C 1.9 °C 1010.7 hPa North 16.1 km/h 33.8 km/h 78 % 0.0 mm 0 W/m2
22:35 5.3 °C 1.9 °C 1010.7 hPa WNW 22.5 km/h 30.6 km/h 79 % 0.0 mm 0 W/m2
22:40 5.3 °C 1.9 °C 1011.1 hPa WNW 12.9 km/h 37.0 km/h 79 % 0.0 mm 0 W/m2
22:45 5.3 °C 2.1 °C 1011.1 hPa NNW 12.9 km/h 37.0 km/h 80 % 0.0 mm 0 W/m2
22:50 5.2 °C 2.1 °C 1011.1 hPa WNW 8.0 km/h 35.4 km/h 80 % 0.0 mm 0 W/m2
22:55 5.2 °C 2.0 °C 1011.1 hPa NW 9.7 km/h 35.4 km/h 80 % 0.0 mm 0 W/m2
23:00 5.2 °C 2.2 °C 1011.4 hPa NNW 14.5 km/h 32.2 km/h 81 % 0.0 mm 0 W/m2
23:10 5.1 °C 2.3 °C 1011.4 hPa NW 3.2 km/h 24.1 km/h 82 % 0.0 mm 0 W/m2
23:15 5.1 °C 2.2 °C 1011.4 hPa WNW 19.3 km/h 30.6 km/h 82 % 0.0 mm 0 W/m2
23:20 5.1 °C 2.2 °C 1011.4 hPa NW 6.4 km/h 30.6 km/h 82 % 0.0 mm 0 W/m2
23:30 5.2 °C 2.2 °C 1011.4 hPa WNW 11.3 km/h 38.6 km/h 81 % 0.0 mm 0 W/m2
23:35 5.2 °C 2.1 °C 1011.7 hPa WNW 22.5 km/h 33.8 km/h 80 % 0.0 mm 0 W/m2
23:40 5.3 °C 2.0 °C 1011.4 hPa WNW 11.3 km/h 37.0 km/h 79 % 0.0 mm 0 W/m2
23:45 5.4 °C 1.9 °C 1011.7 hPa NW 14.5 km/h 37.0 km/h 78 % 0.0 mm 0 W/m2
23:50 5.4 °C 1.7 °C 1011.7 hPa NNW 22.5 km/h 33.8 km/h 77 % 0.0 mm 0 W/m2
23:55 5.3 °C 1.4 °C 1011.7 hPa WNW 8.0 km/h 33.8 km/h 76 % 0.0 mm 0 W/m2
Avec l'autorisation de Weather Underground - 1.75 mb